Change the Weather History Date:

Saturday, September 15, 2012

  Actual Average Record
Temperature  
Mean Temperature 62 °F -  
Max Temperature 84 °F 70 °F 92 °F (1955)
Min Temperature 41 °F 46 °F 30 °F (2007)
Degree Days  
Heating Degree Days 2    
Growing Degree Days 12 (Base 50)    
Moisture  
Dew Point 36 °F    
Average Humidity 39    
Maximum Humidity 81    
Minimum Humidity 16    
Precipitation  
Precipitation 0.00 in - - ()
Sea Level Pressure  
Sea Level Pressure 30.05 in    
Wind  
Wind Speed 8 mph (SE)    
Max Wind Speed 16 mph    
Max Gust Speed 22 mph    
Visibility 10 miles    
Events      
Averages and records for this station are not official NWS values.
T = Trace of Precipitation, MM = Missing Value Source: NWS Daily Summary

Daily Weather History Graph

Daily Weather History Graph

Search for Another Location

Airport or City:

Trip Planner

Search our weather history database for the weather conditions in past years. The results will help you decide how hot, cold, wet, or windy it might be!

Date:

Astronomy

Sep. 15, 2012 Rise Set
Actual Time 7:00 AM CDT 7:31 PM CDT
Civil Twilight 6:30 AM CDT 8:01 PM CDT
Nautical Twilight 5:55 AM CDT 8:36 PM CDT
Astronomical Twilight 5:18 AM CDT 9:12 PM CDT
Moon 6:33 AM CDT (9/15) 6:59 PM CDT (9/15)
Length of Visible Light 13h 30m
Length of Day
12h 31m
Waning Crescent, 0% of the Moon is Illuminated
Sep 15
Waning Crescent
Sep 15
New
Sep 22
First Quarter
Sep 29
Full
Oct 8
Last Quarter

Hourly Weather History & Observations

Time (CDT) Temp. Windchill Dew Point Humidity Pressure Visibility Wind Dir Wind Speed Gust Speed Precip Events Conditions
12:14 AM 51.8 °F - 37.4 °F 58% 30.23 in 10.0 mi East 6.9 mph - N/A   Clear
12:53 AM 51.8 °F - 37.4 °F 58% 30.22 in 10.0 mi East 6.9 mph - N/A   Clear
1:14 AM 51.8 °F - 35.6 °F 54% 30.22 in 10.0 mi East 8.1 mph - N/A   Clear
1:33 AM 51.8 °F - 35.6 °F 54% 30.21 in 10.0 mi East 9.2 mph - N/A   Clear
2:14 AM 51.8 °F - 35.6 °F 54% 30.20 in 10.0 mi East 5.8 mph - N/A   Clear
2:33 AM 51.8 °F - 33.8 °F 50% 30.19 in 10.0 mi East 9.2 mph - N/A   Clear
3:14 AM 51.8 °F - 33.8 °F 50% 30.18 in 10.0 mi East 9.2 mph - N/A   Clear
3:33 AM 51.8 °F - 33.8 °F 50% 30.17 in 10.0 mi East 8.1 mph - N/A   Clear
3:53 AM 50.0 °F - 33.8 °F 54% 30.16 in 10.0 mi East 6.9 mph - N/A   Clear
4:14 AM 48.2 °F - 33.8 °F 58% 30.16 in 10.0 mi East 5.8 mph - N/A   Clear
4:33 AM 46.4 °F 43.5 °F 33.8 °F 62% 30.16 in 10.0 mi East 5.8 mph - N/A   Clear
4:53 AM 44.6 °F 41.4 °F 33.8 °F 66% 30.15 in 10.0 mi East 5.8 mph - N/A   Clear
5:14 AM 44.6 °F 40.7 °F 33.8 °F 66% 30.15 in 10.0 mi East 6.9 mph - N/A   Clear
5:33 AM 44.6 °F 42.2 °F 35.6 °F 71% 30.15 in 10.0 mi East 4.6 mph - N/A   Clear
5:54 AM 44.6 °F 42.2 °F 35.6 °F 71% 30.15 in 10.0 mi East 4.6 mph - N/A   Clear
6:13 AM 44.6 °F 42.2 °F 35.6 °F 71% 30.15 in 10.0 mi East 4.6 mph - N/A   Clear
6:33 AM 44.6 °F 43.1 °F 35.6 °F 71% 30.15 in 10.0 mi East 3.5 mph - N/A   Clear
6:54 AM 42.8 °F 41.1 °F 35.6 °F 76% 30.15 in 10.0 mi East 3.5 mph - N/A   Clear
7:13 AM 41.0 °F 37.1 °F 33.8 °F 76% 30.14 in 10.0 mi ENE 5.8 mph - N/A   Clear
7:33 AM 41.0 °F 37.1 °F 35.6 °F 81% 30.14 in 10.0 mi East 5.8 mph - N/A   Clear
7:54 AM 44.6 °F 41.4 °F 37.4 °F 76% 30.13 in 10.0 mi East 5.8 mph - N/A   Clear
8:13 AM 48.2 °F - 37.4 °F 66% 30.13 in 10.0 mi East 4.6 mph - N/A   Clear
8:33 AM 51.8 °F - 37.4 °F 58% 30.12 in 10.0 mi ESE 4.6 mph - N/A   Clear
9:13 AM 55.4 °F - 39.2 °F 54% 30.11 in 10.0 mi SE 6.9 mph - N/A   Clear
9:54 AM 60.8 °F - 39.2 °F 45% 30.10 in 10.0 mi SSE 6.9 mph - N/A   Clear
10:13 AM 62.6 °F - 41.0 °F 45% 30.10 in 10.0 mi SSE 6.9 mph - N/A   Clear
10:33 AM 64.4 °F - 41.0 °F 42% 30.09 in 10.0 mi SE 5.8 mph - N/A   Clear
10:54 AM 68.0 °F - 41.0 °F 37% 30.09 in 10.0 mi SE 4.6 mph - N/A   Clear
11:13 AM 71.6 °F - 37.4 °F 29% 30.07 in 10.0 mi SE 4.6 mph - N/A   Clear
11:33 AM 73.4 °F - 37.4 °F 27% 30.07 in 10.0 mi South 6.9 mph - N/A   Clear
11:54 AM 75.2 °F - 35.6 °F 24% 30.06 in 10.0 mi South 5.8 mph - N/A   Clear
12:13 PM 75.2 °F - 35.6 °F 24% 30.06 in 10.0 mi South 8.1 mph - N/A   Clear
12:34 PM 78.8 °F - 33.8 °F 20% 30.05 in 10.0 mi SSW 11.5 mph - N/A   Clear
12:54 PM 78.8 °F - 35.6 °F 21% 30.05 in 10.0 mi South 10.4 mph 16.1 mph N/A   Clear
1:13 PM 78.8 °F - 35.6 °F 21% 30.04 in 10.0 mi SSE 11.5 mph - N/A   Clear
1:33 PM 78.8 °F - 35.6 °F 21% 30.04 in 10.0 mi SSE 12.7 mph 16.1 mph N/A   Clear
1:54 PM 80.6 °F - 35.6 °F 20% 30.03 in 10.0 mi SSE 13.8 mph - N/A   Clear
2:13 PM 80.6 °F - 35.6 °F 20% 30.02 in 10.0 mi SSE 15.0 mph - N/A   Clear
2:34 PM 80.6 °F - 35.6 °F 20% 30.01 in 10.0 mi South 13.8 mph 18.4 mph N/A   Clear
2:53 PM 82.4 °F - 35.6 °F 19% 30.00 in 10.0 mi SSE 11.5 mph 18.4 mph N/A   Clear
3:13 PM 82.4 °F - 33.8 °F 17% 29.99 in 10.0 mi South 15.0 mph 20.7 mph N/A   Clear
3:34 PM 84.2 °F - 33.8 °F 16% 29.98 in 10.0 mi South 16.1 mph 19.6 mph N/A   Clear
3:53 PM 84.2 °F - 33.8 °F 16% 29.98 in 10.0 mi South 13.8 mph 20.7 mph N/A   Clear
4:13 PM 84.2 °F - 35.6 °F 18% 29.97 in 10.0 mi South 15.0 mph 20.7 mph N/A   Clear
4:34 PM 84.2 °F - 35.6 °F 18% 29.96 in 10.0 mi South 13.8 mph - N/A   Clear
4:53 PM 84.2 °F - 35.6 °F 18% 29.95 in 10.0 mi South 11.5 mph - N/A   Clear
5:13 PM 84.2 °F - 35.6 °F 18% 29.95 in 10.0 mi South 11.5 mph - N/A   Clear
5:34 PM 84.2 °F - 33.8 °F 16% 29.94 in 10.0 mi South 12.7 mph - N/A   Clear
5:53 PM 84.2 °F - 33.8 °F 16% 29.93 in 10.0 mi South 10.4 mph - N/A   Clear
6:13 PM 82.4 °F - 35.6 °F 19% 29.93 in 10.0 mi South 8.1 mph - N/A   Clear
6:34 PM 80.6 °F - 37.4 °F 21% 29.92 in 10.0 mi South 8.1 mph - N/A   Clear
6:53 PM 75.2 °F - 39.2 °F 27% 29.92 in 10.0 mi South 8.1 mph - N/A   Clear
7:13 PM 69.8 °F - 41.0 °F 35% 29.92 in 10.0 mi South 8.1 mph - N/A   Clear
7:53 PM 66.2 °F - 41.0 °F 40% 29.92 in 10.0 mi South 10.4 mph - N/A   Clear
8:13 PM 64.4 °F - 41.0 °F 42% 29.92 in 10.0 mi South 10.4 mph - N/A   Clear
8:34 PM 71.6 °F - 35.6 °F 27% 29.92 in 10.0 mi South 13.8 mph - N/A   Clear
8:53 PM 71.6 °F - 33.8 °F 25% 29.92 in 10.0 mi South 12.7 mph - N/A   Clear
9:14 PM 69.8 °F - 35.6 °F 28% 29.91 in 10.0 mi South 12.7 mph - N/A   Clear
9:33 PM 69.8 °F - 35.6 °F 28% 29.91 in 10.0 mi South 12.7 mph 18.4 mph N/A   Clear
9:53 PM 69.8 °F - 35.6 °F 28% 29.91 in 10.0 mi South 16.1 mph - N/A   Clear
10:14 PM 69.8 °F - 33.8 °F 27% 29.91 in 10.0 mi South 15.0 mph - N/A   Clear
10:33 PM 69.8 °F - 33.8 °F 27% 29.91 in 10.0 mi South 15.0 mph 20.7 mph N/A   Clear
10:53 PM 69.8 °F - 33.8 °F 27% 29.91 in 10.0 mi South 15.0 mph - N/A   Clear
11:14 PM 68.0 °F - 33.8 °F 28% 29.91 in 10.0 mi South 15.0 mph 21.9 mph N/A   Clear
11:33 PM 66.2 °F - 33.8 °F 30% 29.91 in 10.0 mi South 12.7 mph 17.3 mph N/A   Clear
11:53 PM 66.2 °F - 35.6 °F 32% 29.91 in 10.0 mi SSW 11.5 mph - N/A   Clear